EHI
0 0 0 0 0 0 0 0 0 0 0 1 0 0 0 0 0 1 2 2 1 1 2 2 3 2 1 2 2 1 2 2 1 1 0 0 0 1 2 2 1 0 0
0 0 0 0 0 0 0 0 0 0 1 1 1 0 0 0 0 1 2 2 1 0 1 1 2 1 1 1 1 0 1 1 1 1 1 0 0 1 1 1 0 0 1
0 0 0 0 0 0 0 0 0 0 1 2 1 0 0 0 0 0 1 1 0 0 0 1 1 2 2 1 0 0 0 0 1 2 2 1 0 0 0 0 0 1 2
0 0 0 0 0 0 0 0 0 0 1 1 1 0 0 0 0 0 0 0 0 0 0 0 1 2 2 1 0 0 0 0 0 1 1 1 0 0 0 0 0 1 2
0 0 0 0 0 0 0 0 0 0 0 0 0 0 0 0 0 0 0 0 0 0 0 0 1 2 2 1 0 0 0 0 0 0 0 0 0 0 0 0 0 0 1
0 0 0 0 0 0 0 0 0 0 0 0 0 0 0 0 0 0 0 0 0 0 0 0 1 2 1 0 0 0 0 0 0 0 0 0 0 0 0 0 0 0 0
0 0 0 0 0 0 0 0 0 0 0 0 0 0 0 0 0 0 0 0 0 0 0 0 1 1 1 0 0 0 0 0 0 0 0 0 0 0 0 0 1 1 0
0 0 0 0 1 1 0 0 0 0 0 0 0 0 0 0 0 0 0 0 1 1 1 1 1 1 1 1 1 1 1 1 0 0 0 0 0 0 0 0 1 2 1
0 0 0 0 1 1 1 1 1 0 0 0 0 0 0 1 1 1 1 1 2 2 2 2 2 2 2 3 3 3 2 2 1 0 0 0 0 0 0 0 1 2 3
0 0 0 0 1 1 1 1 2 1 1 1 0 0 1 1 2 2 1 1 2 3 3 3 3 3 3 4 4 4 3 3 1 0 0 0 0 0 0 0 1 3 3
0 0 0 0 0 0 0 1 2 2 1 1 1 1 1 1 2 2 1 1 3 3 3 3 3 3 3 3 4 3 3 3 2 1 1 1 0 0 0 0 2 3 3
1 0 0 0 0 0 0 0 1 1 0 0 0 0 1 1 2 2 2 2 3 3 3 3 3 3 3 3 3 3 3 3 3 3 3 4 2 1 1 0 1 2 3
2 1 0 0 0 0 0 0 0 1 1 1 1 1 1 2 3 3 3 3 3 3 3 3 3 3 3 3 3 3 3 3 3 4 5 5 4 3 2 0 0 1 2
2 1 0 0 0 1 1 0 1 2 2 2 2 2 3 3 3 3 3 2 2 2 2 3 3 3 3 4 3 3 3 3 3 3 4 4 4 3 2 0 0 1 2
1 1 0 0 1 2 2 1 2 3 3 2 2 3 3 3 3 3 3 2 2 3 3 3 3 3 4 4 3 3 3 3 2 2 3 3 3 3 2 1 1 2 3
0 0 1 2 3 3 3 2 2 2 1 1 1 2 3 3 3 3 3 3 3 3 3 2 3 3 4 3 2 2 2 1 1 1 1 2 3 3 4 3 2 2 3
0 1 2 4 5 4 3 3 2 1 0 1 2 2 2 2 2 3 3 3 3 2 1 1 2 3 2 1 1 0 0 0 0 0 0 1 1 2 4 4 2 1 2
2 3 4 4 3 3 3 3 3 1 0 1 2 2 1 1 1 1 2 2 1 1 0 0 1 2 1 1 1 1 0 0 0 1 1 1 1 2 3 3 2 1 1
5 5 5 4 2 1 2 3 3 2 1 0 1 1 0 0 0 0 1 1 0 0 0 1 2 1 1 1 2 2 1 1 1 2 2 2 2 2 2 3 3 2 1
6 6 6 5 2 1 1 2 3 3 2 1 0 0 0 0 1 1 0 1 1 0 0 1 1 1 0 1 2 2 1 2 3 3 3 3 3 2 2 3 4 4 3
7 7 6 5 4 1 1 2 3 3 1 1 1 0 0 1 2 2 2 2 2 1 1 1 0 0 0 0 1 1 1 2 3 4 4 3 1 1 1 2 3 4 3
9 8 7 6 5 3 2 2 3 2 0 0 0 0 0 1 3 3 4 4 4 4 3 2 2 1 1 0 0 0 0 1 2 3 4 3 1 0 0 1 1 2 2
10 9 8 8 6 4 3 3 3 2 1 0 0 0 0 1 2 4 5 6 6 6 5 5 5 4 3 1 1 1 0 0 1 1 2 2 1 0 0 0 0 0 1
8 8 9 11 11 8 6 4 2 2 1 0 0 0 1 2 3 5 7 8 8 7 6 6 6 6 5 3 2 2 2 1 1 2 2 2 1 0 0 0 0 1 2
4 5 8 13 15 13 10 7 4 2 1 1 1 1 3 4 4 4 6 8 8 7 7 7 8 8 7 5 3 3 3 3 3 3 3 4 3 2 1 1 1 1 2
2 3 7 12 16 15 12 9 6 3 2 3 4 3 4 5 5 4 5 7 8 7 8 10 10 9 7 6 4 4 4 4 4 3 4 5 5 4 3 2 2 2 3
Wind_Speed
5 7 8 7 7 8 8 8 8 9 9 10 10 10 11 12 12 13 14 15 16 16 17 18 18 18 17 17 17 17 17 17 18 17 17 16 15 15 15 14 13 13 16
5 7 9 7 8 8 8 9 9 9 9 10 11 11 12 13 13 14 15 16 16 16 17 18 18 18 17 16 16 16 17 17 16 16 16 15 14 14 13 11 9 12 14
6 7 8 7 7 8 8 8 9 9 9 10 11 12 12 13 13 14 15 16 16 16 17 17 17 17 16 16 16 16 16 16 15 14 12 11 13 13 12 12 12 14 13
6 7 8 7 6 7 8 8 9 9 10 11 11 11 12 12 13 14 15 15 16 17 17 17 17 16 15 15 15 15 15 15 13 11 8 9 10 13 12 11 12 12 13
6 7 9 6 6 7 7 8 9 10 10 11 11 11 11 12 12 14 15 15 16 16 16 16 16 15 15 14 14 13 13 13 11 8 8 8 9 12 11 11 11 11 12
7 7 10 6 6 6 7 8 9 9 10 11 11 11 11 12 12 13 14 14 15 15 15 15 14 14 13 13 12 12 12 11 9 8 8 8 9 11 11 11 10 10 11
7 7 10 7 6 7 7 8 9 10 10 11 11 11 12 12 12 12 13 13 14 14 14 13 13 12 12 11 11 11 11 8 6 7 7 7 9 11 10 10 10 9 10
7 7 9 8 7 7 7 8 8 9 10 11 11 11 12 12 11 11 12 12 13 12 12 12 12 11 11 10 10 9 8 5 6 7 6 7 10 10 10 10 9 9 9
6 7 6 8 8 8 8 8 9 9 10 10 10 11 11 11 11 11 11 11 11 11 11 11 10 10 9 9 9 8 6 3 4 5 6 6 10 9 9 9 9 9 9
6 6 5 5 6 7 9 9 8 9 9 10 10 10 10 10 10 10 10 10 10 10 10 10 9 9 9 9 9 8 7 5 5 6 4 8 10 9 9 8 8 8 8
5 4 4 5 5 5 7 9 8 9 8 8 9 9 6 6 7 7 11 10 10 10 10 10 9 9 9 9 9 8 6 3 4 3 4 9 8 8 8 8 8 8 8
5 4 4 4 4 4 5 6 4 5 6 5 5 6 5 5 5 7 10 10 9 9 9 9 8 8 6 6 8 7 3 3 3 4 6 9 7 7 8 8 8 7 7
4 4 4 4 3 3 3 3 3 3 4 5 6 5 4 4 5 5 5 6 7 7 6 7 6 4 4 4 3 3 3 2 2 3 7 8 7 7 7 7 7 7 7
4 4 4 5 4 3 2 3 3 3 3 3 4 4 4 3 3 4 3 4 4 3 3 3 3 4 3 3 3 3 3 2 2 2 6 8 6 6 7 7 7 7 7
4 3 4 4 4 3 2 1 3 3 2 4 3 3 3 3 3 4 3 2 3 3 4 3 3 3 2 3 2 3 2 2 2 2 5 8 7 6 6 6 6 7 7
4 3 4 4 4 4 3 2 2 2 2 2 3 3 2 3 3 3 4 3 3 3 3 3 3 3 2 2 2 2 1 2 2 1 3 7 9 7 6 6 6 6 6
4 4 4 4 4 3 3 2 2 2 3 2 3 3 2 3 3 3 3 3 3 3 3 3 3 2 3 3 2 2 1 1 2 2 2 2 5 8 7 6 6 6 6
4 4 4 3 4 4 3 1 1 2 2 2 2 2 3 2 3 2 2 2 3 2 2 2 2 2 2 1 1 1 1 2 2 2 2 2 2 3 6 7 6 6 6
4 4 4 3 4 4 4 3 2 2 1 1 2 2 2 2 3 2 2 2 2 2 2 2 3 1 1 1 1 2 1 1 2 2 2 2 2 2 3 6 6 5 6
5 5 4 5 4 4 3 3 2 2 2 1 2 2 2 2 3 2 3 3 2 2 2 2 2 2 1 1 1 1 0 1 1 1 2 2 2 2 2 2 4 5 5
6 6 5 5 5 4 3 3 3 3 2 2 2 3 3 2 3 2 2 3 2 2 2 3 3 3 3 2 2 1 1 1 1 1 1 0 1 0 0 1 1 1 3
7 6 6 6 6 5 3 2 2 1 2 2 2 2 2 2 2 3 2 2 2 2 3 3 3 2 2 3 2 2 2 3 2 1 2 2 1 1 1 1 1 1 1
8 7 6 6 6 5 4 4 3 3 3 3 3 3 2 2 2 1 2 2 2 3 3 3 3 4 3 3 3 2 2 1 1 2 2 2 1 1 1 1 2 1 1
8 8 7 7 6 5 5 4 4 3 2 2 2 2 2 2 2 3 3 2 2 2 3 4 3 3 4 3 3 2 2 0 2 2 2 2 1 1 1 1 2 2 1
9 8 8 7 7 6 5 5 4 4 3 3 3 3 2 2 2 3 3 3 3 2 2 2 2 3 3 3 2 2 2 3 3 2 2 2 1 1 1 1 1 1 1
9 8 8 8 7 7 7 6 5 4 3 3 3 3 3 2 2 2 2 2 2 2 2 3 3 4 3 3 3 3 3 2 2 2 2 2 2 1 1 1 1 0 1
Wind_Direction
74 72 71 57 61 63 66 71 77 82 86 88 89 91 93 94 94 97 105 109 112 115 117 115 116 119 121 121 122 122 121 121 119 120 121 120 119 118 118 122 125 114 114
82 82 85 61 61 64 67 69 75 81 85 89 88 91 92 95 96 98 103 105 108 112 113 115 117 119 120 122 123 123 124 122 121 122 125 124 121 120 119 117 105 110 121
90 90 92 72 64 65 68 72 82 83 87 90 90 93 95 98 99 98 103 104 105 109 114 115 116 119 119 120 124 125 125 124 124 128 139 130 122 121 119 114 113 120 122
86 87 80 80 71 71 74 77 83 86 91 90 90 94 97 99 100 101 103 103 105 106 109 111 114 116 117 117 121 122 124 127 130 145 138 120 124 121 122 122 124 126 126
89 87 87 80 77 75 78 83 88 90 93 93 94 95 98 100 101 103 106 107 109 109 109 109 112 115 118 120 122 123 123 127 139 151 119 119 117 124 128 129 130 132 132
104 96 91 80 79 79 83 87 91 94 95 96 96 98 101 103 102 109 109 111 112 113 113 113 114 117 119 122 124 127 126 132 156 125 122 129 123 129 132 135 135 135 133
100 95 95 85 79 82 90 92 94 96 98 99 98 101 103 101 98 105 109 110 112 113 113 113 113 115 117 119 121 125 131 146 135 120 125 123 119 131 138 140 138 135 135
102 98 99 105 88 88 95 97 96 98 100 99 98 101 105 103 103 104 108 111 111 112 112 112 113 117 121 123 122 125 135 164 138 126 125 118 122 138 142 145 144 141 140
95 97 104 116 118 115 100 96 97 100 100 99 98 100 104 105 105 104 106 112 114 113 112 112 113 116 121 125 128 131 137 169 148 132 133 123 132 143 144 148 148 148 147
99 94 97 94 103 119 116 106 101 100 102 103 104 107 110 113 113 114 115 111 116 113 113 112 111 112 117 125 130 134 148 193 152 140 129 122 139 149 152 156 156 153 154
101 93 92 98 103 110 110 115 123 118 113 122 118 119 132 120 114 121 103 109 112 113 115 112 112 115 124 128 129 139 176 171 135 122 115 118 147 160 163 163 163 161 161
121 117 103 95 97 105 106 116 123 119 115 112 108 119 118 109 107 108 113 115 115 116 121 121 128 148 168 137 139 168 165 139 134 133 117 132 156 169 168 166 165 166 168
124 117 115 108 109 112 111 116 103 105 110 115 111 118 113 122 125 123 125 129 132 144 137 139 162 149 124 106 131 139 129 134 122 122 124 143 161 168 168 171 176 178 180
122 114 106 110 109 100 99 110 123 121 119 113 116 124 123 120 118 115 127 127 137 135 133 143 128 118 115 120 121 123 140 141 121 109 123 144 160 170 174 177 181 184 184
137 134 119 114 117 126 127 140 114 112 111 116 116 119 131 135 126 123 120 126 132 133 146 138 117 118 129 139 140 140 134 134 133 143 132 149 163 173 180 182 185 187 188
151 144 129 133 130 134 139 138 123 130 132 121 125 120 140 122 119 130 139 139 135 136 127 137 135 140 146 130 140 125 143 138 117 150 147 155 169 179 184 188 193 193 195
154 150 148 151 137 136 137 143 135 137 125 116 112 125 135 127 127 146 138 151 133 133 143 152 144 157 158 154 149 150 165 144 129 140 150 158 164 171 179 189 197 201 204
159 156 166 161 143 145 135 126 119 107 105 122 129 128 132 129 145 159 139 136 138 166 165 154 175 162 146 153 153 164 145 154 169 172 173 166 163 161 169 181 194 204 210
169 166 166 163 158 157 150 153 148 125 122 135 130 128 132 146 159 172 146 130 178 173 178 192 149 176 154 153 170 159 181 170 171 175 159 176 163 178 166 159 179 197 210
174 175 173 172 167 170 166 163 163 159 167 151 138 136 147 151 162 169 156 154 185 171 174 169 152 173 185 187 204 98 132 176 189 162 195 186 183 188 191 173 182 176 184
176 178 180 181 170 181 181 190 173 167 168 154 151 144 161 167 158 174 175 151 185 175 183 173 179 177 184 168 183 160 151 140 127 140 139 122 135 145 186 182 223 195 168
181 183 185 186 181 189 176 183 178 162 166 149 137 133 162 173 176 172 175 186 176 177 184 182 186 213 194 189 211 207 189 160 135 102 122 136 106 114 138 126 67 26 310
185 188 189 184 183 189 180 182 172 172 189 164 156 153 162 169 170 170 181 207 191 210 193 199 202 211 214 204 223 249 237 165 141 139 128 107 103 83 117 113 108 80 47
187 184 183 180 183 182 187 194 194 188 177 151 164 143 152 166 178 183 192 201 210 215 202 215 198 218 224 217 196 238 275 309 230 166 156 137 125 121 122 114 94 88 64
184 180 176 178 180 181 187 182 195 199 186 169 166 154 177 166 186 186 186 194 206 217 212 229 210 228 226 239 228 209 195 195 229 233 190 173 165 147 122 125 94 91 88
181 179 175 175 181 181 185 184 192 192 193 183 183 177 185 171 179 172 184 198 215 229 219 218 221 218 230 236 243 233 229 225 216 219 213 202 179 140 140 126 149 151 120